Other Surface Observations
Issued by NWS Jacksonville, FL

Home | Current Version | Previous Version | Text Only | Print | Product List | Glossary On
Versions: 1 2 3 4 5 6 7 8 9 10 11 12 13 14 15 16 17 18 19 20 21 22 23 24 25 26 27 28 29 30 31 32 33 34 35 36 37 38 39 40 41 42 43 44 45 46 47 48 49 50
000
SXUS52 KJAX 280813
OSOJAX
OTHER SURFACE OBSERVATIONS
NATIONAL WEATHER SERVICE JACKSONVILLE FL
400 AM EDT SUN AUG 28 2016

FLZ020>025-030>033-035>038-040-280900-
...FLORIDA...

CITY           SKY/WX    TMP DP  RH WIND       PRES   REMARKS
CECIL FIELD    CLEAR     75  75 100 CALM      30.00S
HERLONG FIELD  NOT AVBL
FERNANDINA BCH NOT AVBL
LAKE CITY      FAIR      75  75 100 E3        30.00F
JUNIPER SPGS   NOT AVBL
BUNNELL        NOT AVBL
KEYSTONE HGTS  FAIR      75  75 100 NE5       30.00S
$$

GAZ132>136-149>154-162>166-280900-
...GEORGIA...

CITY           SKY/WX    TMP DP  RH WIND       PRES   REMARKS
JESUP          FAIR      75  75 100 CALM      30.04S
HOMERVILLE     FAIR      75  75 100 NE5       30.03S
SWAINSBORO     FAIR      73  72  94 E5        30.08S
CORDELE        NOT AVBL
EASTMAN        FAIR      73  73 100 CALM      30.09S
$$

PLEASE NOTE:  THESE OBSERVATIONS ARE NOT QUALITY CONTROLLED AND MAY
NOT BE AVAILABLE AT ALL TIMES.
$$




USA.gov is the U.S. government's official web portal to all federal, state and local government web resources and services.